Location: White Mills Observatory
(37.5374°N, 86.0303°W)
Time: 00:13:34
(UTC-04:00)

Amateur Radio Satellites - All Passes

Search period start: 23 July 2014 23:43
Search period end: 24 July 2014 23:43
Location: White Mills Observatory, 37.5374°N, 86.0303°W

Satellite Date Start Highest point End Downlink Frequencies (MHz)
Time Altitude Azimuth
SO-50 23 Jul 23:44:28 23:49:10 58° 57° (ENE) 23:53:55 436.795 FM
MaSat-1 23 Jul 23:47:25 23:51:10 59° 297° (WNW) 23:55:37 437.345 MHz
FUNcube-1 24 Jul 00:24:33 00:27:49 20° 265° (W) 00:31:03 145.950 - 145.970 MHz USB
AO-40 24 Jul 00:36:25 06:27:38 44° 181° (S) 11:23:07 Beacon 2401.320
UOSAT-12 24 Jul 00:38:15 00:41:26 18° 45° (NE) 00:44:35 437.025 FM, 437.400 FM
Lituanica SAT-1 24 Jul 01:17:02 01:19:01 35° 324° (NW) 01:21:02 437.275 MHz beacon
ISS 24 Jul 01:20:06 01:22:20 17° 129° (SE) 01:24:35 145.800 FM
SO-50 24 Jul 01:26:35 01:29:16 15° 252° (WSW) 01:31:59 436.795 FM
Sapphire 24 Jul 01:34:34 01:37:09 14° 103° (ESE) 01:39:44 437.095 MHz 1200 baud AX-25 AFSK
RS-15 24 Jul 01:36:21 01:47:03 58° 248° (WSW) 01:58:12 29.354 - 29.394 USB, Beacon 29.352 USB
PCSat 24 Jul 02:06:09 02:10:49 31° 108° (ESE) 02:15:31 145.825 MHz
Oscar 19 24 Jul 02:12:15 02:15:21 16° 92° (E) 02:18:26 437.125 CW, 437.150 USB
UOSAT-12 24 Jul 02:17:20 02:21:59 60° 243° (WSW) 02:26:33 437.025 FM, 437.400 FM
Oscar 16 24 Jul 02:38:27 02:43:00 31° 97° (E) 02:47:31 437.025 USB, Beacon 2401.1428
ITAMSAT 1 24 Jul 02:48:43 02:51:51 16° 92° (E) 02:54:57 435.822 SSB
ISS 24 Jul 02:55:35 02:58:48 44° 325° (NW) 03:02:02 145.800 FM
AO-27 24 Jul 03:05:33 03:09:45 25° 95° (E) 03:13:55 436.795 MHz FM
Uribyol 2 24 Jul 03:08:38 03:13:00 27° 96° (E) 03:17:20 436.500 FM
AO-Echo 24 Jul 03:12:01 03:16:26 29° 95° (E) 03:20:42 ?
Sapphire 24 Jul 03:14:31 03:19:54 70° 299° (WNW) 03:25:19 437.095 MHz 1200 baud AX-25 AFSK
JAS-1B 24 Jul 03:43:18 03:52:10 42° 94° (E) 03:59:52 435.800 - 435.900 CW/SSB
PCSat 24 Jul 03:49:14 03:54:07 34° 305° (NW) 03:59:02 145.825 MHz
Oscar 19 24 Jul 03:49:57 03:54:59 55° 287° (WNW) 04:00:00 437.125 CW, 437.150 USB
TMSAT-1 24 Jul 04:14:51 04:19:37 33° 97° (E) 04:24:20 436.925 FM
Oscar 16 24 Jul 04:17:51 04:22:14 29° 292° (WNW) 04:26:36 437.025 USB, Beacon 2401.1428
ITAMSAT 1 24 Jul 04:26:36 04:31:39 54° 288° (WNW) 04:36:39 435.822 SSB
ISS 24 Jul 04:35:11 04:36:13 11° 343° (NNW) 04:37:15 145.800 FM
Gurwin Techsat 1B 24 Jul 04:35:12 04:40:32 74° 102° (ESE) 04:45:49 435.225 FM
OPAL 24 Jul 04:39:06 04:44:00 66° 72° (ENE) 04:48:54 ?
AO-27 24 Jul 04:44:35 04:49:18 36° 291° (WNW) 04:53:59 436.795 MHz FM
Uribyol 2 24 Jul 04:47:53 04:52:26 32° 291° (WNW) 04:56:58 436.500 FM
AO-Echo 24 Jul 04:50:42 04:55:07 30° 292° (WNW) 04:59:23 ?
Sapphire 24 Jul 05:02:42 05:04:19 11° 318° (NW) 05:05:56 437.095 MHz 1200 baud AX-25 AFSK
Uosat F 24 Jul 05:04:29 05:08:14 21° 94° (E) 05:11:57 435.120 FM
JAS-1B 24 Jul 05:33:37 05:42:36 47° 295° (WNW) 05:50:32 435.800 - 435.900 CW/SSB
TMSAT-1 24 Jul 05:54:56 05:59:23 28° 292° (WNW) 06:03:49 436.925 FM
AO-7 24 Jul 05:59:47 06:08:04 63° 104° (ESE) 06:16:14 29.400 - 29.500 MHz
Gurwin Techsat 1B 24 Jul 06:17:19 06:19:50 14° 298° (WNW) 06:22:20 435.225 FM
OPAL 24 Jul 06:21:25 06:23:18 12° 267° (W) 06:25:11 ?
Uosat F 24 Jul 06:42:28 06:47:08 40° 290° (WNW) 06:51:47 435.120 FM
STRAND 1 24 Jul 06:53:51 06:58:13 29° 68° (ENE) 07:02:36 ?
Lituanica SAT-1 24 Jul 07:31:26 07:33:31 44° 38° (NE) 07:35:36 437.275 MHz beacon
Oscar 10/S400 24 Jul 07:40:19 08:59:22 30° 252° (WSW) 12:23:42 145.825 - 145.975 CW/USB, Beacon 145.810 USB
Hamsat 24 Jul 07:49:43 07:54:01 88° 282° (WNW) 07:58:20 145.90 MHz
ISS 24 Jul 07:49:57 07:52:11 16° 24° (NNE) 07:54:24 145.800 FM
AO-7 24 Jul 07:53:29 08:00:15 29° 302° (WNW) 08:07:00 29.400 - 29.500 MHz
KITSAT 1 24 Jul 07:53:57 08:01:53 62° 113° (ESE) 08:09:50 435.175 FM
PANSAT 24 Jul 07:54:31 07:56:19 13° 164° (SSE) 07:58:07 not established
JAS-2 24 Jul 08:07:37 08:13:50 83° 103° (ESE) 08:19:19 435.800 - 435.900 CW/SSB, 435.910 FM
MaSat-1 24 Jul 08:07:48 08:12:09 25° 55° (NE) 08:16:23 437.345 MHz
STRAND 1 24 Jul 08:32:47 08:37:18 31° 263° (W) 08:41:50 ?
Saudisat 1A 24 Jul 08:43:53 08:46:30 16° 109° (ESE) 08:49:08 436.775 MHz
SO-67 24 Jul 08:47:42 08:51:10 66° 101° (E) 08:54:36 435.3500 MHz FM
ISS 24 Jul 09:25:54 09:29:16 79° 221° (SW) 09:32:36 145.800 FM
PANSAT 24 Jul 09:32:58 09:35:54 21° 177° (S) 09:38:49 not established
MaSat-1 24 Jul 09:44:42 09:49:43 43° 253° (WSW) 09:54:29 437.345 MHz
KITSAT 1 24 Jul 09:50:45 09:57:45 31° 313° (NW) 10:04:47 435.175 FM
JAS-2 24 Jul 09:55:01 09:57:52 14° 303° (WNW) 10:00:35 435.800 - 435.900 CW/SSB, 435.910 FM
Saudisat 1A 24 Jul 10:21:24 10:25:41 48° 305° (NW) 10:29:58 436.775 MHz
Oscar 11 24 Jul 10:32:39 10:35:26 17° 93° (E) 10:38:13 145.825 FM, Beacon 2401.500 USB
HO-68 24 Jul 10:33:30 10:40:30 55° 102° (ESE) 10:47:26 435.675 MHz FM
PCSat 24 Jul 10:56:11 10:59:59 19° 48° (NE) 11:03:45 145.825 MHz
PANSAT 24 Jul 11:12:53 11:15:31 18° 190° (S) 11:18:09 not established
UKube-1 24 Jul 11:16:31 11:20:52 73° 285° (WNW) 11:25:12 145.840 MHz, 145.915 MHz
Sapphire 24 Jul 12:04:28 12:09:51 61° 60° (ENE) 12:15:11 437.095 MHz 1200 baud AX-25 AFSK
Oscar 11 24 Jul 12:07:45 12:11:45 37° 288° (WNW) 12:15:44 145.825 FM, Beacon 2401.500 USB
FUNcube-1 24 Jul 12:14:19 12:18:30 89° 103° (ESE) 12:22:41 145.950 - 145.970 MHz USB
HO-68 24 Jul 12:21:59 12:27:46 28° 298° (WNW) 12:33:32 435.675 MHz FM
PCSat 24 Jul 12:38:29 12:43:51 64° 246° (WSW) 12:49:11 145.825 MHz
Oscar 19 24 Jul 13:27:23 13:31:00 20° 65° (ENE) 13:34:37 437.125 CW, 437.150 USB
RS-15 24 Jul 13:47:18 13:56:10 28° 104° (ESE) 14:04:48 29.354 - 29.394 USB, Beacon 29.352 USB
Sapphire 24 Jul 13:49:27 13:52:42 16° 256° (WSW) 13:55:57 437.095 MHz 1200 baud AX-25 AFSK
Oscar 16 24 Jul 13:53:35 13:58:15 37° 70° (ENE) 14:02:56 437.025 USB, Beacon 2401.1428
SO-50 24 Jul 13:58:21 14:02:08 28° 112° (ESE) 14:05:58 436.795 FM
ITAMSAT 1 24 Jul 14:04:44 14:08:37 22° 65° (ENE) 14:12:30 435.822 SSB
Gurwin Techsat 1B 24 Jul 14:18:51 14:20:29 11° 60° (ENE) 14:22:07 435.225 FM
AO-27 24 Jul 14:21:45 14:26:19 32° 68° (ENE) 14:30:54 436.795 MHz FM
AO-Echo 24 Jul 14:22:37 14:27:15 32° 69° (ENE) 14:31:56 ?
JAS-1B 24 Jul 14:24:29 14:31:49 32° 60° (ENE) 14:39:52 435.800 - 435.900 CW/SSB
Uribyol 2 24 Jul 14:24:34 14:29:15 35° 69° (ENE) 14:33:56 436.500 FM
Oscar 19 24 Jul 15:05:06 15:09:59 45° 261° (W) 15:14:53 437.125 CW, 437.150 USB
AO-7 24 Jul 15:09:07 15:13:13 15° 50° (NE) 15:17:19 29.400 - 29.500 MHz
Oscar 16 24 Jul 15:33:39 15:37:40 23° 265° (W) 15:41:43 437.025 USB, Beacon 2401.1428
TMSAT-1 24 Jul 15:33:39 15:38:37 43° 71° (ENE) 15:43:37 436.925 FM
SO-50 24 Jul 15:38:43 15:42:36 29° 309° (NW) 15:46:34 436.795 FM
ITAMSAT 1 24 Jul 15:42:50 15:47:47 43° 261° (W) 15:52:46 435.822 SSB
KITSAT 1 24 Jul 15:49:57 15:56:12 24° 42° (NE) 16:02:23 435.175 FM
Gurwin Techsat 1B 24 Jul 15:54:21 15:59:39 87° 257° (WSW) 16:05:00 435.225 FM
RS-15 24 Jul 15:56:20 16:07:29 72° 303° (WNW) 16:18:26 29.354 - 29.394 USB, Beacon 29.352 USB
AO-27 24 Jul 16:01:18 16:05:47 29° 264° (W) 16:10:17 436.795 MHz FM
AO-Echo 24 Jul 16:01:25 16:05:56 29° 264° (W) 16:10:32 ?
Uribyol 2 24 Jul 16:04:27 16:08:44 26° 264° (W) 16:13:02 436.500 FM
JAS-1B 24 Jul 16:13:15 16:21:29 64° 260° (W) 16:31:03 435.800 - 435.900 CW/SSB
Uosat F 24 Jul 16:15:57 16:19:59 25° 67° (ENE) 16:24:01 435.120 FM
UOSAT-12 24 Jul 16:26:22 16:30:53 66° 118° (ESE) 16:35:32 437.025 FM, 437.400 FM
OPAL 24 Jul 16:51:40 16:55:23 20° 96° (E) 16:59:06 ?
AO-7 24 Jul 16:56:13 17:04:30 70° 69° (ENE) 17:12:49 29.400 - 29.500 MHz
TMSAT-1 24 Jul 17:14:43 17:18:41 21° 266° (W) 17:22:41 436.925 FM
KITSAT 1 24 Jul 17:44:27 17:52:34 85° 243° (WSW) 18:00:37 435.175 FM
Uosat F 24 Jul 17:53:58 17:58:33 35° 262° (W) 18:03:11 435.120 FM
UOSAT-12 24 Jul 18:08:39 18:11:30 16° 316° (NW) 18:14:24 437.025 FM, 437.400 FM
Oscar 10/S400 24 Jul 18:10:21 18:19:26 13° 147° (SSE) 18:27:32 145.825 - 145.975 CW/USB, Beacon 145.810 USB
JAS-1B 24 Jul 18:12:46 18:13:58 10° 280° (W) 18:15:10 435.800 - 435.900 CW/SSB
RS-15 24 Jul 18:13:57 18:22:09 23° 330° (NNW) 18:30:21 29.354 - 29.394 USB, Beacon 29.352 USB
JAS-2 24 Jul 18:15:39 18:22:32 35° 67° (ENE) 18:29:10 435.800 - 435.900 CW/SSB, 435.910 FM
OPAL 24 Jul 18:29:38 18:34:23 43° 291° (WNW) 18:39:11 ?
Hamsat 24 Jul 18:41:12 18:45:13 49° 74° (ENE) 18:49:16 145.90 MHz
Saudisat 1A 24 Jul 18:49:48 18:54:13 75° 59° (ENE) 18:58:36 436.775 MHz
AO-7 24 Jul 18:51:35 18:57:51 23° 266° (W) 19:04:10 29.400 - 29.500 MHz
STRAND 1 24 Jul 19:09:19 19:10:03 10° 90° (E) 19:10:47 ?
SO-67 24 Jul 19:20:08 19:22:21 16° 70° (ENE) 19:24:35 435.3500 MHz FM
KITSAT 1 24 Jul 19:42:47 19:46:45 15° 260° (W) 19:50:43 435.175 FM
JAS-2 24 Jul 19:59:43 20:07:15 49° 262° (W) 20:14:34 435.800 - 435.900 CW/SSB, 435.910 FM
Hamsat 24 Jul 20:19:59 20:21:27 12° 269° (W) 20:22:56 145.90 MHz
RS-15 24 Jul 20:34:52 20:40:32 15° 7° (N) 20:46:15 29.354 - 29.394 USB, Beacon 29.352 USB
STRAND 1 24 Jul 20:44:39 20:49:47 78° 285° (WNW) 20:54:51 ?
SO-67 24 Jul 20:52:23 20:55:14 24° 264° (W) 20:58:06 435.3500 MHz FM
HO-68 24 Jul 21:00:19 21:06:36 34° 64° (ENE) 21:12:52 435.675 MHz FM
Oscar 11 24 Jul 21:27:52 21:29:02 11° 64° (ENE) 21:30:13 145.825 FM, Beacon 2401.500 USB
UKube-1 24 Jul 22:09:53 22:14:14 75° 75° (ENE) 22:18:37 145.840 MHz, 145.915 MHz
SO-50 24 Jul 22:31:44 22:35:07 19° 47° (NE) 22:38:31 436.795 FM
HO-68 24 Jul 22:47:20 22:54:05 44° 260° (W) 23:00:52 435.675 MHz FM
RS-15 24 Jul 22:48:08 22:57:51 34° 41° (NE) 23:07:47 29.354 - 29.394 USB, Beacon 29.352 USB
Oscar 11 24 Jul 23:00:25 23:04:40 62° 259° (W) 23:08:57 145.825 FM, Beacon 2401.500 USB
FUNcube-1 24 Jul 23:08:41 23:12:59 55° 75° (ENE) 23:17:12 145.950 - 145.970 MHz USB
Lituanica SAT-1 24 Jul 23:32:26 23:32:57 11° 131° (SE) 23:33:28 437.275 MHz beacon
MaSat-1 24 Jul 23:34:11 23:37:57 57° 297° (WNW) 23:42:25 437.345 MHz
